VLG8RK LEBL-LEMH

Flight info

Callsign VLG8RK
Flight time 0h 33m
Altitude 19000
Route DUNES Q700 SARGO
Aircraft A320/M-SDE3FGHIRWY/LB1

Departure

Time 2026-04-30 12:23
Airport Josep Tarradellas Barcelona-El Prat Airport (LEBL)

Arrival

Time 2026-04-30 12:56
Airport Menorca Airport (LEMH)
Time Latitude Longitude Altitude Speed Heading
2026-04-30 11:51 41.29412 2.08080 17 ft 0 kts 65°
2026-04-30 12:14 41.29415 2.08090 17 ft 3 kts 65°
2026-04-30 12:14 41.29427 2.08124 17 ft 6 kts 65°
2026-04-30 12:14 41.29468 2.08128 16 ft 8 kts 338°
2026-04-30 12:15 41.29534 2.08087 16 ft 12 kts 335°
2026-04-30 12:15 41.29572 2.08001 17 ft 13 kts 253°
2026-04-30 12:15 41.29531 2.07883 18 ft 15 kts 245°
2026-04-30 12:15 41.29484 2.07744 17 ft 18 kts 245°
2026-04-30 12:16 41.29429 2.07583 18 ft 20 kts 246°
2026-04-30 12:16 41.29367 2.07400 17 ft 23 kts 245°
2026-04-30 12:16 41.29297 2.07196 18 ft 24 kts 246°
2026-04-30 12:16 41.29242 2.07040 16 ft 17 kts 245°
2026-04-30 12:17 41.29127 2.06701 17 ft 23 kts 246°
2026-04-30 12:17 41.29076 2.06533 16 ft 19 kts 268°
2026-04-30 12:17 41.29089 2.06467 15 ft 1 kts 289°
2026-04-30 12:18 41.29093 2.06454 15 ft 0 kts 289°
2026-04-30 12:18 41.29098 2.06435 15 ft 6 kts 290°
2026-04-30 12:18 41.29138 2.06357 14 ft 15 kts 323°
2026-04-30 12:19 41.29244 2.06287 15 ft 19 kts 334°
2026-04-30 12:19 41.29370 2.06226 16 ft 19 kts 12°
2026-04-30 12:19 41.29449 2.06379 16 ft 22 kts 64°
2026-04-30 12:19 41.29431 2.06492 15 ft 8 kts 146°
2026-04-30 12:20 41.29383 2.06524 16 ft 0 kts 155°
2026-04-30 12:20 41.29374 2.06529 14 ft 4 kts 155°
2026-04-30 12:21 41.29326 2.06557 14 ft 10 kts 156°
2026-04-30 12:21 41.29287 2.06622 15 ft 10 kts 77°
2026-04-30 12:21 41.29298 2.06656 15 ft 0 kts 65°
2026-04-30 12:22 41.29299 2.06658 16 ft 2 kts 65°
2026-04-30 12:22 41.29365 2.06852 16 ft 58 kts 65°
2026-04-30 12:22 41.29625 2.07609 19 ft 119 kts 65°
2026-04-30 12:23 41.30035 2.08803 41 ft 163 kts 66°
2026-04-30 12:23 41.30506 2.10214 623 ft 170 kts 66°
2026-04-30 12:23 41.30982 2.11668 1358 ft 171 kts 66°
2026-04-30 12:23 41.31478 2.13114 2048 ft 177 kts 65°
2026-04-30 12:24 41.32024 2.14696 2394 ft 199 kts 66°
2026-04-30 12:24 41.32629 2.16452 2760 ft 220 kts 67°
2026-04-30 12:24 41.32924 2.18515 3225 ft 238 kts 98°
2026-04-30 12:24 41.32197 2.20575 3789 ft 258 kts 127°
2026-04-30 12:25 41.31115 2.22501 4681 ft 263 kts 124°
2026-04-30 12:25 41.30127 2.24568 5621 ft 268 kts 121°
2026-04-30 12:25 41.29202 2.26749 6561 ft 272 kts 119°
2026-04-30 12:25 41.28323 2.28996 7464 ft 276 kts 118°
2026-04-30 12:26 41.27464 2.31305 8343 ft 281 kts 117°
2026-04-30 12:26 41.26602 2.33665 9194 ft 286 kts 117°
2026-04-30 12:26 41.25729 2.36064 10031 ft 291 kts 117°
2026-04-30 12:26 41.24823 2.38546 10507 ft 309 kts 118°
2026-04-30 12:27 41.23858 2.41178 10756 ft 333 kts 118°
2026-04-30 12:27 41.22807 2.44044 10936 ft 357 kts 118°
2026-04-30 12:27 41.21693 2.47086 11302 ft 370 kts 117°
2026-04-30 12:27 41.20590 2.50107 12446 ft 361 kts 118°
2026-04-30 12:28 41.19493 2.53106 13202 ft 363 kts 118°
2026-04-30 12:28 41.18378 2.56138 13876 ft 367 kts 118°
2026-04-30 12:28 41.17246 2.59200 14526 ft 371 kts 118°
2026-04-30 12:28 41.16099 2.62290 15152 ft 375 kts 118°
2026-04-30 12:29 41.14942 2.65410 15754 ft 379 kts 118°
2026-04-30 12:29 41.13583 2.68416 16336 ft 381 kts 128°
2026-04-30 12:29 41.11979 2.71239 16918 ft 384 kts 129°
2026-04-30 12:29 41.10353 2.74077 17492 ft 388 kts 129°
2026-04-30 12:30 41.08712 2.76939 18072 ft 392 kts 130°
2026-04-30 12:30 41.07054 2.79833 18640 ft 396 kts 129°
2026-04-30 12:30 41.05379 2.82761 19003 ft 400 kts 129°
2026-04-30 12:30 41.03696 2.85701 19093 ft 407 kts 129°
2026-04-30 12:31 41.01948 2.88737 19101 ft 420 kts 129°
2026-04-30 12:31 41.00171 2.91826 19100 ft 423 kts 130°
2026-04-30 12:31 40.98385 2.94932 19100 ft 424 kts 130°
2026-04-30 12:31 40.96601 2.98035 19101 ft 425 kts 130°
2026-04-30 12:32 40.94804 3.01156 19099 ft 425 kts 129°
2026-04-30 12:32 40.93016 3.04263 19100 ft 425 kts 130°
2026-04-30 12:32 40.91227 3.07371 19100 ft 425 kts 130°
2026-04-30 12:32 40.89451 3.10442 19100 ft 425 kts 130°
2026-04-30 12:33 40.87631 3.13581 19090 ft 425 kts 130°
2026-04-30 12:33 40.85950 3.16727 19089 ft 427 kts 123°
2026-04-30 12:33 40.84486 3.20134 19090 ft 427 kts 121°
2026-04-30 12:33 40.83020 3.23555 19092 ft 428 kts 122°
2026-04-30 12:34 40.81549 3.26970 19094 ft 428 kts 122°
2026-04-30 12:34 40.80076 3.30381 19096 ft 428 kts 122°
2026-04-30 12:34 40.78599 3.33800 19098 ft 428 kts 122°
2026-04-30 12:34 40.77125 3.37209 19100 ft 428 kts 122°
2026-04-30 12:35 40.75659 3.40593 19084 ft 412 kts 122°
2026-04-30 12:35 40.74296 3.43746 19089 ft 385 kts 122°
2026-04-30 12:35 40.72987 3.46768 19090 ft 373 kts 122°
2026-04-30 12:35 40.71710 3.49713 19091 ft 368 kts 122°
2026-04-30 12:36 40.70438 3.52628 19091 ft 366 kts 122°
2026-04-30 12:36 40.69167 3.55537 19092 ft 367 kts 122°
2026-04-30 12:36 40.67870 3.58501 19097 ft 374 kts 122°
2026-04-30 12:36 40.66577 3.61456 18678 ft 371 kts 122°
2026-04-30 12:37 40.65303 3.64367 18012 ft 365 kts 122°
2026-04-30 12:37 40.64044 3.67254 17211 ft 360 kts 122°
2026-04-30 12:37 40.62818 3.70065 16744 ft 347 kts 122°
2026-04-30 12:37 40.61639 3.72768 16329 ft 333 kts 122°
2026-04-30 12:38 40.60502 3.75366 15907 ft 322 kts 122°
2026-04-30 12:38 40.59415 3.77845 15543 ft 312 kts 122°
2026-04-30 12:38 40.58334 3.80305 15173 ft 302 kts 122°
2026-04-30 12:38 40.57304 3.82644 14820 ft 299 kts 122°
2026-04-30 12:39 40.56260 3.85011 14460 ft 298 kts 122°
2026-04-30 12:39 40.55221 3.87366 14100 ft 297 kts 122°
2026-04-30 12:39 40.54177 3.89728 13747 ft 299 kts 122°
2026-04-30 12:39 40.53143 3.92065 13594 ft 292 kts 122°
2026-04-30 12:40 40.52130 3.94352 13378 ft 288 kts 122°
2026-04-30 12:40 40.51132 3.96603 13132 ft 282 kts 122°
2026-04-30 12:40 40.50148 3.98837 12885 ft 282 kts 122°
2026-04-30 12:40 40.48947 4.00824 12632 ft 275 kts 144°
2026-04-30 12:41 40.47299 4.01993 12403 ft 267 kts 167°
2026-04-30 12:41 40.45465 4.02205 12163 ft 261 kts 191°
2026-04-30 12:41 40.43780 4.01479 11913 ft 256 kts 213°
2026-04-30 12:41 40.42445 3.99989 11659 ft 252 kts 233°
2026-04-30 12:42 40.41843 3.98694 11493 ft 252 kts 247°
2026-04-30 12:42 40.41464 3.96361 11250 ft 285 kts 271°
2026-04-30 12:42 40.42049 3.93693 11001 ft 331 kts 300°
2026-04-30 12:42 40.44518 3.90889 10645 ft 373 kts 335°
2026-04-30 12:43 40.46183 3.90291 10477 ft 380 kts 353°
2026-04-30 12:43 40.48804 3.90594 10226 ft 383 kts 15°
2026-04-30 12:43 40.51239 3.91968 9971 ft 376 kts 33°
2026-04-30 12:43 40.53119 3.94209 9757 ft 358 kts 54°
2026-04-30 12:44 40.54258 3.97031 9564 ft 342 kts 73°
2026-04-30 12:44 40.54652 4.00065 9441 ft 337 kts 91°
2026-04-30 12:44 40.54333 4.03099 9319 ft 335 kts 108°
2026-04-30 12:44 40.53343 4.05831 9191 ft 332 kts 126°
2026-04-30 12:45 40.51780 4.08038 9064 ft 329 kts 143°
2026-04-30 12:45 40.49811 4.09516 8940 ft 327 kts 160°
2026-04-30 12:45 40.47600 4.10156 8819 ft 326 kts 175°
2026-04-30 12:45 40.45332 4.10339 8707 ft 326 kts 176°
2026-04-30 12:46 40.43065 4.10517 8581 ft 326 kts 176°
2026-04-30 12:46 40.40810 4.10696 8451 ft 325 kts 176°
2026-04-30 12:46 40.38556 4.10877 8331 ft 323 kts 176°
2026-04-30 12:46 40.36318 4.11058 8202 ft 322 kts 176°
2026-04-30 12:47 40.34075 4.11241 8081 ft 322 kts 176°
2026-04-30 12:47 40.31846 4.11422 7966 ft 321 kts 176°
2026-04-30 12:47 40.29633 4.11598 7821 ft 309 kts 176°
2026-04-30 12:47 40.27604 4.11762 7700 ft 284 kts 176°
2026-04-30 12:48 40.25641 4.11924 7568 ft 276 kts 175°
2026-04-30 12:48 40.23756 4.12079 7447 ft 274 kts 175°
2026-04-30 12:48 40.21854 4.12235 7320 ft 273 kts 175°
2026-04-30 12:48 40.19994 4.12695 6809 ft 272 kts 156°
2026-04-30 12:49 40.18438 4.14040 6252 ft 267 kts 137°
2026-04-30 12:49 40.17087 4.15688 5696 ft 264 kts 137°
2026-04-30 12:49 40.15786 4.17258 5559 ft 245 kts 138°
2026-04-30 12:49 40.14580 4.18705 5434 ft 226 kts 138°
2026-04-30 12:50 40.13434 4.20077 5068 ft 226 kts 138°
2026-04-30 12:50 40.12254 4.21487 4502 ft 230 kts 138°
2026-04-30 12:50 40.11098 4.22870 4249 ft 219 kts 138°
2026-04-30 12:50 40.09983 4.24203 4134 ft 216 kts 138°
2026-04-30 12:51 40.08866 4.25508 4026 ft 215 kts 144°
2026-04-30 12:51 40.07498 4.26215 3922 ft 214 kts 179°
2026-04-30 12:51 40.06011 4.25973 3854 ft 216 kts 188°
2026-04-30 12:51 40.04530 4.25640 3684 ft 215 kts 187°
2026-04-30 12:52 40.03060 4.25330 3419 ft 212 kts 187°
2026-04-30 12:52 40.01636 4.25035 3143 ft 202 kts 187°
2026-04-30 12:52 40.00279 4.24755 2882 ft 194 kts 187°
2026-04-30 12:52 39.98957 4.24482 2641 ft 189 kts 187°
2026-04-30 12:53 39.97688 4.24218 2385 ft 181 kts 188°
2026-04-30 12:53 39.96460 4.23965 2147 ft 175 kts 188°
2026-04-30 12:53 39.95278 4.23722 1910 ft 169 kts 188°
2026-04-30 12:53 39.94164 4.23493 1686 ft 154 kts 187°
2026-04-30 12:54 39.93155 4.23285 1508 ft 142 kts 189°
2026-04-30 12:54 39.92202 4.23089 1325 ft 136 kts 189°
2026-04-30 12:54 39.91273 4.22892 1145 ft 134 kts 189°
2026-04-30 12:54 39.90350 4.22703 1004 ft 135 kts 189°
2026-04-30 12:55 39.89427 4.22518 815 ft 135 kts 190°
2026-04-30 12:55 39.88504 4.22319 612 ft 135 kts 188°
2026-04-30 12:55 39.87574 4.22134 415 ft 135 kts 189°
2026-04-30 12:55 39.86657 4.21948 305 ft 124 kts 189°
2026-04-30 12:56 39.85962 4.21803 303 ft 77 kts 189°
2026-04-30 12:56 39.85624 4.21757 292 ft 26 kts 171°
2026-04-30 12:56 39.85451 4.21827 284 ft 21 kts 158°
2026-04-30 12:56 39.85405 4.21862 284 ft 10 kts 133°
2026-04-30 12:57 39.85455 4.21939 284 ft 16 kts 13°
2026-04-30 12:57 39.85572 4.21965 287 ft 18 kts
2026-04-30 12:57 39.85695 4.21990 292 ft 18 kts
2026-04-30 12:57 39.85823 4.22017 296 ft 19 kts 10°
2026-04-30 12:58 39.85957 4.22046 296 ft 21 kts
2026-04-30 12:58 39.86111 4.22075 297 ft 24 kts
2026-04-30 12:58 39.86188 4.22160 291 ft 15 kts 100°
2026-04-30 12:58 39.86239 4.22272 288 ft 20 kts
2026-04-30 12:59 39.86413 4.22307 288 ft 28 kts
2026-04-30 12:59 39.86611 4.22349 292 ft 30 kts
2026-04-30 12:59 39.86760 4.22379 292 ft 9 kts
2026-04-30 12:59 39.86774 4.22430 291 ft 9 kts 103°
2026-04-30 13:00 39.86768 4.22470 291 ft 0 kts 99°
2026-04-30 13:00 39.86767 4.22484 289 ft 0 kts 99°